Velkommen til Søllested vejret

webcam Søllestedvejret  webcam Søllestedvejret


Thunder radar more information blitzortung!


3 Timers nedbørs radar more information rain snow radar


Besøg nogle andre vejrsider:

Template documentation
and downloads

And another site



No particular awareness of the weather is required.    There are no Weather-warnings

Weather Underground Historie, Tekst side

Dagens Sammenfatning af December 14, 2018 Enheder:  Metrisk    Engelsk   Både
« Forgående Dag
Næste Dag »
Dagens Ugenligt månedlig Årligt Tilpasset
  Aktuelt: Høj: Lav: Gennemsnit:
Temperatur: -17.2 °C -17.8 °C -17.2 °C -16.8 °C
Dugpunkt: -18.6 °C -17.8 °C -18.6 °C -17.6 °C
Luftfugtighed: 84 % Humidity % 84 % 90 %
Vindhastighed: 11.9 km/h 0 km/h 0 km/h 14.8 km/h
Vindstød: 11.9 km/h 0 km/h - -
Vind:East - - ENE
Lufttryk: 34865.6 hPa 0 hPa 34743.7 hPa -
Nedbør: 7.62 mm      
Historical Graphs
 
 
Tabeldata for December 14, 2018
Tid Temperatur Dugpunkt Lufttryk Vind Vindhastighed Vindstød Luftfugtighed Regn (timme)
-17.8 °C -17.8 °C 0 hPa Calm     Humidity % 0 mm
00:00 -16.6 °C -17.6 °C 34767.4 hPa NE 18.2 km/h 33.6 km/h 88 % 0 mm
00:04 -16.6 °C -17.6 °C 34764.1 hPa NE 23.8 km/h 19.2 km/h 88 % 0 mm
00:09 -16.5 °C -17.5 °C 34764.1 hPa NE 29.8 km/h 21.2 km/h 88 % 0 mm
00:14 -16.6 °C -17.6 °C 34764.1 hPa NE 26.9 km/h 22 km/h 88 % 0 mm
00:20 -16.6 °C -17.6 °C 34764.1 hPa NE 15.6 km/h 33.6 km/h 88 % 0 mm
00:25 -16.6 °C -17.6 °C 34760.7 hPa NE 25.9 km/h 44.1 km/h 88 % 0 mm
00:30 -16.6 °C -17.6 °C 34764.1 hPa NE 31.1 km/h 38.8 km/h 88 % 0 mm
00:35 -16.6 °C -17.6 °C 34760.7 hPa NE 20.8 km/h 44.1 km/h 88 % 0 mm
00:39 -16.6 °C -17.6 °C 34764.1 hPa NE 38.8 km/h 23 km/h 88 % 0 mm
00:45 -16.6 °C -17.6 °C 34764.1 hPa NE 20.8 km/h 36.2 km/h 88 % 0 mm
00:50 -16.6 °C -17.6 °C 34760.7 hPa NE 32.8 km/h 26.4 km/h 88 % 0 mm
00:55 -16.6 °C -17.6 °C 34757.3 hPa NE 25.9 km/h 33.6 km/h 88 % 0 mm
00:59 -16.6 °C -17.4 °C 34757.3 hPa NNE 23.8 km/h 14.2 km/h 89 % 0 mm
01:05 -16.6 °C -17.5 °C 34760.7 hPa NNE 29.8 km/h 23.3 km/h 89 % 0 mm
01:10 -16.6 °C -17.5 °C 34760.7 hPa NE 25.9 km/h 59.5 km/h 89 % 0 mm
01:14 -16.6 °C -17.6 °C 34760.7 hPa NNE 26.9 km/h 22 km/h 89 % 0 mm
01:20 -16.7 °C -17.6 °C 34760.7 hPa NE 25.9 km/h 44.1 km/h 89 % 0 mm
01:25 -16.7 °C -17.6 °C 34757.3 hPa NNE 29.8 km/h 22 km/h 89 % 0 mm
01:30 -16.7 °C -17.6 °C 34757.3 hPa NE 36.2 km/h 49.2 km/h 89 % 0 mm
01:35 -16.8 °C -17.7 °C 34757.3 hPa NE 23.3 km/h 46.7 km/h 89 % 0 mm
01:40 -16.8 °C -17.7 °C 34760.7 hPa NE 20.8 km/h 31.1 km/h 89 % 0 mm
01:45 -16.8 °C -17.7 °C 34760.7 hPa NE 20.8 km/h 31.1 km/h 89 % 0 mm
01:50 -16.9 °C -17.8 °C 34764.1 hPa NE 18.2 km/h 28.5 km/h 89 % 0 mm
01:55 -16.9 °C -17.8 °C 34767.4 hPa NE 18.2 km/h 33.6 km/h 89 % 0 mm
02:00 -16.9 °C -17.8 °C 34767.4 hPa NE 18.2 km/h 31.1 km/h 89 % 0 mm
02:05 -17 °C -17.9 °C 34767.4 hPa NE 15.6 km/h 31.1 km/h 89 % 0 mm
02:10 -17.1 °C -17.9 °C 34770.8 hPa NE 18.2 km/h 20.8 km/h 89 % 0 mm
02:15 -17.1 °C -17.9 °C 34770.8 hPa NE 20.8 km/h 23.3 km/h 89 % 0 mm
02:20 -17.1 °C -17.9 °C 34770.8 hPa NE 18.2 km/h 23.3 km/h 90 % 0 mm
02:25 -17.1 °C -17.9 °C 34767.4 hPa NE 18.2 km/h 28.5 km/h 90 % 0 mm
02:30 -17.1 °C -17.9 °C 34770.8 hPa NE 15.6 km/h 28.5 km/h 90 % 0 mm
02:35 -17.1 °C -17.9 °C 34770.8 hPa NE 20.8 km/h 28.5 km/h 90 % 0 mm
02:40 -17.1 °C -17.9 °C 34770.8 hPa NE 12.9 km/h 23.3 km/h 90 % 0 mm
02:45 -17.1 °C -17.9 °C 34767.4 hPa NE 18.2 km/h 31.1 km/h 90 % 0 mm
02:50 -17.1 °C -17.9 °C 34767.4 hPa NE 15.6 km/h 28.5 km/h 90 % 0 mm
02:55 -17.2 °C -17.9 °C 34767.4 hPa NE 7.7 km/h 23.3 km/h 90 % 0 mm
03:00 -17.2 °C -18 °C 34767.4 hPa NE 15.6 km/h 28.5 km/h 90 % 0 mm
03:05 -17.2 °C -18 °C 34767.4 hPa NE 15.6 km/h 23.3 km/h 90 % 0 mm
03:10 -17.2 °C -17.9 °C 34767.4 hPa NE 12.9 km/h 28.5 km/h 90 % 0 mm
03:15 -17.2 °C -18 °C 34764.1 hPa NNE 7.7 km/h 18.2 km/h 90 % 0 mm
03:20 -17.2 °C -17.9 °C 34764.1 hPa NNE 7.7 km/h 18.2 km/h 90 % 0 mm
03:25 -17.2 °C -17.9 °C 34760.7 hPa NNE 7.7 km/h 20.8 km/h 90 % 0 mm
03:30 -17.2 °C -17.9 °C 34757.3 hPa NNE 20.8 km/h 23.3 km/h 90 % 0 mm
03:35 -17.1 °C -17.8 °C 34757.3 hPa NE 15.6 km/h 28.5 km/h 91 % 0 mm
03:39 -17.1 °C -17.8 °C 34760.7 hPa East 27.5 km/h 14.5 km/h 91 % 0 mm
03:45 -17 °C -17.7 °C 34757.3 hPa NE 18.2 km/h 25.9 km/h 91 % 0 mm
03:50 -16.9 °C -17.7 °C 34757.3 hPa NE 23.3 km/h 33.6 km/h 91 % 0 mm
03:55 -16.9 °C -17.7 °C 34753.9 hPa NE 7.7 km/h 23.3 km/h 91 % 0 mm
03:59 -16.9 °C -17.6 °C 34750.5 hPa NE 29.8 km/h 17.4 km/h 91 % 0 mm
04:05 -16.8 °C -17.6 °C 34750.5 hPa NE 20.8 km/h 31.1 km/h 91 % 0 mm
04:10 -16.8 °C -17.6 °C 34750.5 hPa NE 18.2 km/h 36.2 km/h 91 % 0 mm
04:15 -16.8 °C -17.4 °C 34750.5 hPa NE 20.8 km/h 28.5 km/h 92 % 0 mm
04:20 -16.7 °C -17.3 °C 34747.1 hPa NE 15.6 km/h 33.6 km/h 92 % 0 mm
04:25 -16.7 °C -17.3 °C 34747.1 hPa NE 18.2 km/h 33.6 km/h 92 % 0 mm
04:30 -16.6 °C -17.3 °C 34747.1 hPa NE 20.8 km/h 31.1 km/h 92 % 0 mm
04:35 -16.6 °C -17.3 °C 34743.7 hPa NE 20.8 km/h 33.6 km/h 91 % 0 mm
04:40 -16.6 °C -17.3 °C 34747.1 hPa NE 18.2 km/h 33.6 km/h 91 % 0 mm
04:45 -16.6 °C -17.3 °C 34747.1 hPa NE 20.8 km/h 28.5 km/h 91 % 0 mm
04:50 -16.6 °C -17.2 °C 34750.5 hPa NE 15.6 km/h 31.1 km/h 92 % 0 mm
04:55 -16.5 °C -17.2 °C 34747.1 hPa NE 15.6 km/h 28.5 km/h 92 % 0 mm
04:59 -16.5 °C -17.1 °C 34750.5 hPa ENE 35.7 km/h 26.2 km/h 92 % 0 mm
05:05 -16.5 °C -17.2 °C 34750.5 hPa NE 25.9 km/h 33.6 km/h 91 % 0 mm
05:10 -16.5 °C -17.2 °C 34750.5 hPa NE 25.9 km/h 46.7 km/h 91 % 0 mm
05:15 -16.5 °C -17.2 °C 34753.9 hPa NE 31.1 km/h 46.7 km/h 91 % 0 mm
05:20 -16.5 °C -17.2 °C 34753.9 hPa NE 31.1 km/h 38.8 km/h 91 % 0 mm
05:25 -16.5 °C -17.3 °C 34750.5 hPa NE 18.2 km/h 33.6 km/h 91 % 0 mm
05:30 -16.5 °C -17.3 °C 34753.9 hPa NE 25.9 km/h 33.6 km/h 91 % 0 mm
05:35 -16.5 °C -17.3 °C 34753.9 hPa NE 20.8 km/h 28.5 km/h 91 % 0 mm
05:39 -16.5 °C -17.2 °C 34750.5 hPa NE 18.3 km/h 26.9 km/h 91 % 0 mm
05:45 -16.5 °C -17.2 °C 34750.5 hPa NE 15.6 km/h 25.9 km/h 91 % 0 mm
05:49 -16.5 °C -17.2 °C 34753.9 hPa NNE 20.9 km/h 17.4 km/h 91 % 0 mm
05:55 -16.5 °C -17.2 °C 34753.9 hPa ENE 5.1 km/h 23.3 km/h 91 % 0 mm
06:00 -16.5 °C -17.2 °C 34753.9 hPa East 5.1 km/h 12.9 km/h 91 % 0 mm
06:05 -16.5 °C -17.3 °C 34757.3 hPa East 12.9 km/h 23.3 km/h 91 % 0 mm
06:10 -16.7 °C -17.5 °C 34750.5 hPa ENE 23.3 km/h 36.2 km/h 90 % 0 mm
06:15 -16.8 °C -17.7 °C 34750.5 hPa ENE 15.6 km/h 23.3 km/h 90 % 0 mm
06:20 -16.9 °C -17.7 °C 34750.5 hPa ENE 12.9 km/h 20.8 km/h 91 % 0 mm
06:25 -16.9 °C -17.7 °C 34750.5 hPa ENE 15.6 km/h 28.5 km/h 91 % 0 mm
06:29 -16.9 °C -17.7 °C 34747.1 hPa NNE 15 km/h 5.1 km/h 91 % 0 mm
06:35 -17 °C -17.7 °C 34750.5 hPa NE 15.6 km/h 20.8 km/h 91 % 0 mm
06:40 -17 °C -17.7 °C 34750.5 hPa NE 15.6 km/h 20.8 km/h 91 % 0 mm
06:45 -17 °C -17.7 °C 34750.5 hPa NE 12.9 km/h 28.5 km/h 91 % 0 mm
06:50 -17.1 °C -17.8 °C 34750.5 hPa ENE 17.9 km/h 10.3 km/h 91 % 0 mm
06:55 -17.1 °C -17.7 °C 34753.9 hPa ENE 7.7 km/h 18.2 km/h 92 % 0 mm
07:00 -17 °C -17.7 °C 34750.5 hPa NE 18.2 km/h 20.8 km/h 92 % 0 mm
07:05 -17 °C -17.7 °C 34753.9 hPa NE 18.2 km/h 28.5 km/h 92 % 0 mm
07:10 -16.9 °C -17.6 °C 34753.9 hPa NE 23.3 km/h 38.8 km/h 92 % 0 mm
07:15 -16.8 °C -17.4 °C 34753.9 hPa NE 18.2 km/h 33.6 km/h 92 % 0 mm
07:20 -16.8 °C -17.4 °C 34757.3 hPa NE 18.2 km/h 28.5 km/h 92 % 0 mm
07:25 -16.8 °C -17.4 °C 34757.3 hPa ENE 18.2 km/h 28.5 km/h 92 % 0 mm
07:30 -16.8 °C -17.4 °C 34757.3 hPa NE 18.2 km/h 28.5 km/h 92 % 0 mm
07:34 -16.8 °C -17.4 °C 34760.7 hPa NE 23.8 km/h 17.9 km/h 92 % 0 mm
07:39 -16.8 °C -17.4 °C 34760.7 hPa ENE 24.3 km/h 20.4 km/h 92 % 0 mm
07:44 -16.8 °C -17.4 °C 34757.3 hPa NE 35.7 km/h 26.4 km/h 92 % 7.62 mm
07:49 -16.8 °C -17.5 °C 34753.9 hPa ENE 24.3 km/h 19.2 km/h 92 % 7.62 mm
07:54 -16.9 °C -17.6 °C 34760.7 hPa NE 23.8 km/h 10.6 km/h 92 % 7.62 mm
07:59 -16.9 °C -17.6 °C 34760.7 hPa NE 20.9 km/h 14 km/h 92 % 7.62 mm
08:04 -16.9 °C -17.6 °C 34764.1 hPa NE 26.9 km/h 19.6 km/h 92 % 7.62 mm
08:09 -16.9 °C -17.5 °C 34760.7 hPa ENE 21.6 km/h 16.9 km/h 93 % 7.62 mm
08:14 -16.9 °C -17.5 °C 34764.1 hPa NE 23.8 km/h 17.5 km/h 93 % 7.62 mm
08:19 -16.9 °C -17.5 °C 34764.1 hPa NNE 17.9 km/h 12.7 km/h 93 % 7.62 mm
08:24 -16.9 °C -17.4 °C 34764.1 hPa ENE 12.2 km/h 8.9 km/h 93 % 7.62 mm
08:29 -16.9 °C -17.4 °C 34764.1 hPa ENE 9 km/h 6 km/h 93 % 7.62 mm
08:34 -16.9 °C -17.4 °C 34764.1 hPa ENE 9 km/h 7.2 km/h 93 % 7.62 mm
08:39 -16.8 °C -17.4 °C 34770.8 hPa ENE 15.3 km/h 15 km/h 93 % 7.62 mm
08:44 -16.8 °C -17.4 °C 34770.8 hPa NNE 17.9 km/h 14.8 km/h 93 % 0 mm
08:49 -16.8 °C -17.4 °C 34774.2 hPa ENE 20.9 km/h 15 km/h 93 % 0 mm
08:54 -16.8 °C -17.3 °C 34774.2 hPa ENE 17.9 km/h 9.7 km/h 93 % 0 mm
08:59 -16.8 °C -17.3 °C 34774.2 hPa ENE 11.9 km/h 10.1 km/h 93 % 0 mm
09:04 -16.8 °C -17.3 °C 34774.2 hPa NE 15.3 km/h 11.9 km/h 93 % 0 mm
09:09 -16.7 °C -17.3 °C 34774.2 hPa NNE 15 km/h 8.9 km/h 93 % 0 mm
09:14 -16.7 °C -17.2 °C 34774.2 hPa NE 17.9 km/h 10.1 km/h 93 % 0 mm
09:19 -16.6 °C -17.2 °C 34777.6 hPa ENE 9 km/h 5.6 km/h 93 % 0 mm
09:24 -16.6 °C -17.2 °C 34777.6 hPa ENE 17.9 km/h 6.8 km/h 93 % 0 mm
09:29 -16.6 °C -17.1 °C 34784.4 hPa ENE 9 km/h 9.3 km/h 93 % 0 mm
09:34 -16.6 °C -17.1 °C 34784.4 hPa ENE 9 km/h 2.6 km/h 93 % 0 mm
09:39 -16.6 °C -17.1 °C 34784.4 hPa ENE 6 km/h   93 % 0 mm
09:44 -16.6 °C -17.1 °C 34791.2 hPa Calm   2.1 km/h 93 % 0 mm
09:49 -16.6 °C -17.1 °C 34794.5 hPa East 17.9 km/h 10.9 km/h 93 % 0 mm
09:54 -16.6 °C -17.1 °C 34801.3 hPa ENE 15 km/h 9.3 km/h 93 % 0 mm
09:59 -16.6 °C -17.2 °C 34797.9 hPa NE 17.9 km/h 6 km/h 93 % 0 mm
10:04 -16.6 °C -17.2 °C 34804.7 hPa ENE 9 km/h 1.3 km/h 93 % 0 mm
10:09 -16.7 °C -17.3 °C 34797.9 hPa SSE 12.2 km/h 6.3 km/h 93 % 0 mm
10:14 -16.8 °C -17.3 °C 34797.9 hPa ENE 20.9 km/h 13.5 km/h 93 % 0 mm
10:19 -16.8 °C -17.3 °C 34801.3 hPa ESE 11.9 km/h 6 km/h 93 % 0 mm
10:24 -16.8 °C -17.3 °C 34804.7 hPa ENE 15 km/h 8.2 km/h 93 % 0 mm
10:29 -16.7 °C -17.3 °C 34804.7 hPa ENE 15 km/h 6.9 km/h 93 % 0 mm
10:34 -16.7 °C -17.2 °C 34804.7 hPa ENE 6 km/h 7.6 km/h 93 % 0 mm
10:39 -16.6 °C -17.2 °C 34808.1 hPa ENE 9 km/h 2.9 km/h 93 % 0 mm
10:44 -16.6 °C -17.2 °C 34808.1 hPa ENE 9 km/h 2.9 km/h 93 % 0 mm
10:49 -16.6 °C -17.2 °C 34808.1 hPa ENE 9 km/h 0.8 km/h 93 % 0 mm
10:54 -16.6 °C -17.1 °C 34811.5 hPa ENE 9 km/h 7.6 km/h 93 % 0 mm
10:59 -16.5 °C -17.1 °C 34811.5 hPa ENE 11.9 km/h 9.3 km/h 93 % 0 mm
11:04 -16.5 °C -17.1 °C 34811.5 hPa ENE 9 km/h 3.9 km/h 93 % 0 mm
11:09 -16.4 °C -17 °C 34811.5 hPa ENE 9 km/h 2.9 km/h 93 % 0 mm
11:14 -16.4 °C -17 °C 34811.5 hPa ENE 11.9 km/h 10.9 km/h 93 % 0 mm
11:19 -16.4 °C -17.1 °C 34811.5 hPa ENE 15 km/h 10.9 km/h 92 % 0 mm
11:24 -16.4 °C -17.1 °C 34814.9 hPa ENE 15 km/h 13.5 km/h 92 % 0 mm
11:29 -16.4 °C -17.1 °C 34814.9 hPa East 32.8 km/h 20.9 km/h 92 % 0 mm
11:34 -16.5 °C -17.2 °C 34814.9 hPa East 41.7 km/h 20.8 km/h 92 % 0 mm
11:39 -16.6 °C -17.3 °C 34811.5 hPa SE 11.9 km/h 6.8 km/h 92 % 0 mm
11:44 -16.7 °C -17.3 °C 34811.5 hPa ESE 15 km/h 8.9 km/h 92 % 0 mm
11:49 -16.7 °C -17.3 °C 34811.5 hPa ESE 11.9 km/h 5.6 km/h 92 % 0 mm
11:54 -16.7 °C -17.3 °C 34808.1 hPa SE 15 km/h 7.6 km/h 92 % 0 mm
11:59 -16.7 °C -17.3 °C 34808.1 hPa ESE 9 km/h 7.2 km/h 92 % 0 mm
12:04 -16.6 °C -17.3 °C 34808.1 hPa ESE 9 km/h 8.2 km/h 92 % 0 mm
12:09 -16.6 °C -17.3 °C 34808.1 hPa East 6 km/h 5.6 km/h 92 % 0 mm
12:14 -16.6 °C -17.3 °C 34808.1 hPa East 6 km/h   92 % 0 mm
12:19 -16.6 °C -17.2 °C 34808.1 hPa NE 15 km/h 6 km/h 92 % 0 mm
12:24 -16.5 °C -17.2 °C 34811.5 hPa NE 15.3 km/h 6.4 km/h 92 % 0 mm
12:29 -16.5 °C -17.2 °C 34811.5 hPa East 17.9 km/h 10.3 km/h 92 % 0 mm
12:34 -16.5 °C -17.2 °C 34811.5 hPa Calm     92 % 0 mm
12:39 -16.5 °C -17.2 °C 34811.5 hPa ENE 9 km/h 3.9 km/h 92 % 0 mm
12:44 -16.5 °C -17.2 °C 34814.9 hPa ESE 11.9 km/h 5.6 km/h 92 % 0 mm
12:49 -16.5 °C -17.2 °C 34814.9 hPa ESE 3.1 km/h 2.3 km/h 92 % 0 mm
12:54 -16.6 °C -17.2 °C 34814.9 hPa ESE 9 km/h 5.1 km/h 92 % 0 mm
12:59 -16.5 °C -17.2 °C 34814.9 hPa ESE 3.1 km/h 3.1 km/h 92 % 0 mm
13:04 -16.5 °C -17.2 °C 34814.9 hPa Calm   4.7 km/h 92 % 0 mm
13:09 -16.5 °C -17.2 °C 34814.9 hPa ESE 6 km/h 3.7 km/h 92 % 0 mm
13:14 -16.5 °C -17.2 °C 34814.9 hPa Calm     92 % 0 mm
13:19 -16.5 °C -17.2 °C 34814.9 hPa ESE 3.1 km/h   92 % 0 mm
13:24 -16.5 °C -17.1 °C 34814.9 hPa East 9 km/h 3.1 km/h 92 % 0 mm
13:29 -16.5 °C -17.2 °C 34811.5 hPa East 9 km/h 0.3 km/h 92 % 0 mm
13:34 -16.6 °C -17.2 °C 34811.5 hPa East 6 km/h   92 % 0 mm
13:39 -16.6 °C -17.2 °C 34811.5 hPa East 9 km/h 9.3 km/h 92 % 0 mm
13:44 -16.6 °C -17.2 °C 34811.5 hPa East 15 km/h 11.9 km/h 92 % 0 mm
13:49 -16.6 °C -17.2 °C 34811.5 hPa East 11.9 km/h 9.7 km/h 92 % 0 mm
13:54 -16.6 °C -17.2 °C 34811.5 hPa East 11.9 km/h 3.9 km/h 92 % 0 mm
13:59 -16.5 °C -17.2 °C 34814.9 hPa East 9 km/h 7.6 km/h 92 % 0 mm
14:04 -16.5 °C -17.2 °C 34814.9 hPa East 9 km/h 3.4 km/h 92 % 0 mm
14:09 -16.6 °C -17.2 °C 34814.9 hPa East 12.2 km/h 8.5 km/h 92 % 0 mm
14:14 -16.6 °C -17.2 °C 34814.9 hPa East 9 km/h 5.1 km/h 92 % 0 mm
14:19 -16.5 °C -17.2 °C 34814.9 hPa East 9 km/h   92 % 0 mm
14:24 -16.5 °C -17.3 °C 34818.2 hPa East 6.3 km/h 3.7 km/h 91 % 0 mm
14:29 -16.5 °C -17.3 °C 34818.2 hPa East 9 km/h 6 km/h 91 % 0 mm
14:34 -16.5 °C -17.3 °C 34821.6 hPa East 9 km/h 6.4 km/h 91 % 0 mm
14:39 -16.5 °C -17.3 °C 34821.6 hPa ENE 6.3 km/h 6.3 km/h 91 % 0 mm
14:44 -16.6 °C -17.3 °C 34821.6 hPa ENE 11.9 km/h 9.8 km/h 91 % 0 mm
14:49 -16.6 °C -17.3 °C 34821.6 hPa ENE 9 km/h 7.7 km/h 91 % 0 mm
14:54 -16.6 °C -17.3 °C 34821.6 hPa ENE 9 km/h 7.2 km/h 91 % 0 mm
14:59 -16.6 °C -17.3 °C 34821.6 hPa ENE 9 km/h 7.2 km/h 91 % 0 mm
15:04 -16.6 °C -17.3 °C 34821.6 hPa ENE 11.9 km/h 5.6 km/h 91 % 0 mm
15:09 -16.6 °C -17.3 °C 34821.6 hPa ENE 6 km/h   91 % 0 mm
15:14 -16.6 °C -17.4 °C 34818.2 hPa ENE 6 km/h 2.3 km/h 91 % 0 mm
15:19 -16.6 °C -17.3 °C 34821.6 hPa ENE 15 km/h 3.4 km/h 91 % 0 mm
15:24 -16.6 °C -17.3 °C 34821.6 hPa ENE 6 km/h 1.8 km/h 91 % 0 mm
15:29 -16.6 °C -17.3 °C 34825 hPa ENE 9 km/h 8.5 km/h 91 % 0 mm
15:34 -16.6 °C -17.3 °C 34825 hPa ENE 15 km/h 4.7 km/h 91 % 0 mm
15:39 -16.6 °C -17.4 °C 34828.4 hPa ENE 15 km/h 13.7 km/h 90 % 0 mm
15:44 -16.6 °C -17.4 °C 34828.4 hPa ENE 9 km/h 7.2 km/h 90 % 0 mm
15:49 -16.6 °C -17.4 °C 34828.4 hPa ENE 9 km/h 1.3 km/h 90 % 0 mm
15:54 -16.7 °C -17.4 °C 34828.4 hPa ENE 9 km/h 7.7 km/h 90 % 0 mm
15:59 -16.7 °C -17.4 °C 34828.4 hPa ENE 11.9 km/h 4.3 km/h 90 % 0 mm
16:04 -16.7 °C -17.5 °C 34828.4 hPa ENE 6 km/h 2.6 km/h 90 % 0 mm
16:09 -16.7 °C -17.6 °C 34828.4 hPa ENE 11.9 km/h 10.1 km/h 90 % 0 mm
16:14 -16.7 °C -17.6 °C 34828.4 hPa East 9 km/h 15.3 km/h 90 % 0 mm
16:19 -16.8 °C -17.6 °C 34828.4 hPa East 11.9 km/h 2.1 km/h 90 % 0 mm
16:24 -16.8 °C -17.6 °C 34831.8 hPa ENE 6 km/h 3.4 km/h 90 % 0 mm
16:29 -16.8 °C -17.6 °C 34835.2 hPa ENE 11.9 km/h 6 km/h 90 % 0 mm
16:34 -16.8 °C -17.6 °C 34835.2 hPa ENE 11.9 km/h 6.8 km/h 90 % 0 mm
16:39 -16.8 °C -17.6 °C 34835.2 hPa East 9 km/h 4.3 km/h 90 % 0 mm
16:44 -16.8 °C -17.7 °C 34838.6 hPa ESE 15 km/h 9.7 km/h 90 % 0 mm
16:49 -16.8 °C -17.7 °C 34835.2 hPa East 9 km/h 8.5 km/h 90 % 0 mm
16:54 -16.8 °C -17.7 °C 34838.6 hPa ENE 12.2 km/h 5.5 km/h 90 % 0 mm
16:59 -16.9 °C -17.7 °C 34838.6 hPa ENE 9 km/h 1.3 km/h 90 % 0 mm
17:04 -16.9 °C -17.8 °C 34838.6 hPa ENE 20.9 km/h 8 km/h 89 % 0 mm
17:09 -16.9 °C -17.8 °C 34838.6 hPa East 11.9 km/h 6.9 km/h 89 % 0 mm
17:14 -16.9 °C -17.8 °C 34838.6 hPa ENE 15 km/h 10.6 km/h 89 % 0 mm
17:19 -16.9 °C -17.8 °C 34841.9 hPa ENE 6 km/h 7.2 km/h 89 % 0 mm
17:24 -16.9 °C -17.8 °C 34845.3 hPa ESE 9 km/h 3.4 km/h 89 % 0 mm
17:29 -16.9 °C -17.8 °C 34845.3 hPa ENE 9 km/h 8 km/h 89 % 0 mm
17:34 -16.9 °C -17.9 °C 34848.7 hPa ENE 9 km/h 9.8 km/h 88 % 0 mm
17:39 -16.9 °C -17.9 °C 34848.7 hPa ENE 9 km/h 0.8 km/h 88 % 0 mm
17:44 -16.9 °C -17.9 °C 34848.7 hPa ENE 9 km/h 2.6 km/h 88 % 0 mm
17:49 -16.9 °C -17.9 °C 34852.1 hPa East 9 km/h 1.6 km/h 88 % 0 mm
17:54 -16.9 °C -17.9 °C 34852.1 hPa East 9 km/h 8.2 km/h 88 % 0 mm
17:59 -16.9 °C -17.9 °C 34852.1 hPa East 17.9 km/h 8.2 km/h 88 % 0 mm
18:04 -16.9 °C -17.9 °C 34852.1 hPa ENE 9 km/h 2.9 km/h 88 % 0 mm
18:09 -17 °C -17.9 °C 34852.1 hPa ESE 11.9 km/h 3.1 km/h 88 % 0 mm
18:14 -17 °C -17.9 °C 34852.1 hPa East 11.9 km/h 5.5 km/h 88 % 0 mm
18:19 -17 °C -18.1 °C 34852.1 hPa East 9 km/h 3.1 km/h 87 % 0 mm
18:24 -17 °C -18.1 °C 34855.5 hPa East 9 km/h 3.7 km/h 87 % 0 mm
18:29 -17 °C -18.1 °C 34852.1 hPa SE 11.9 km/h 2.6 km/h 87 % 0 mm
18:34 -17 °C -18.1 °C 34848.7 hPa SE 11.9 km/h 10.9 km/h 87 % 0 mm
18:39 -17 °C -18.1 °C 34848.7 hPa ESE 17.9 km/h 8.5 km/h 87 % 0 mm
18:44 -17 °C -18.1 °C 34848.7 hPa ESE 11.9 km/h 6.3 km/h 87 % 0 mm
18:49 -17 °C -18.1 °C 34852.1 hPa East 12.2 km/h 9.3 km/h 87 % 0 mm
18:54 -17 °C -18.2 °C 34852.1 hPa SSE 9 km/h 7.7 km/h 86 % 0 mm
18:59 -17.1 °C -18.2 °C 34852.1 hPa SE 20.9 km/h 6 km/h 86 % 0 mm
19:04 -17.1 °C -18.2 °C 34855.5 hPa East 15 km/h 6.3 km/h 86 % 0 mm
19:09 -17.1 °C -18.2 °C 34855.5 hPa East 15 km/h 11.6 km/h 86 % 0 mm
19:14 -17.1 °C -18.3 °C 34858.9 hPa NE 11.9 km/h 11.9 km/h 85 % 0 mm
19:19 -17.1 °C -18.3 °C 34858.9 hPa ESE 9 km/h 5.6 km/h 85 % 0 mm
19:24 -17.1 °C -18.3 °C 34858.9 hPa ESE 6 km/h 2.1 km/h 85 % 0 mm
19:29 -17.1 °C -18.3 °C 34858.9 hPa East 15 km/h 8.5 km/h 85 % 0 mm
19:34 -17.1 °C -18.3 °C 34858.9 hPa ENE 15 km/h 9.7 km/h 85 % 0 mm
19:39 -17.1 °C -18.3 °C 34858.9 hPa East 11.9 km/h 6.9 km/h 85 % 0 mm
19:44 -17.1 °C -18.3 °C 34858.9 hPa East 11.9 km/h 6.4 km/h 85 % 0 mm
19:49 -17.1 °C -18.3 °C 34855.5 hPa East 15.3 km/h 5.1 km/h 85 % 0 mm
19:54 -17.1 °C -18.4 °C 34858.9 hPa ESE 11.9 km/h 10.1 km/h 85 % 0 mm
19:59 -17.1 °C -18.4 °C 34858.9 hPa East 9 km/h 7.6 km/h 85 % 0 mm
20:04 -17.1 °C -18.4 °C 34862.3 hPa ESE 9 km/h 8 km/h 85 % 0 mm
20:09 -17.2 °C -18.5 °C 34862.3 hPa ENE 9 km/h 1.8 km/h 84 % 0 mm
20:14 -17.2 °C -18.5 °C 34865.6 hPa ESE 15.3 km/h 5.1 km/h 84 % 0 mm
20:19 -17.2 °C -18.5 °C 34865.6 hPa East 11.9 km/h 7.2 km/h 84 % 0 mm
20:24 -17.2 °C -18.4 °C 34865.6 hPa East 9 km/h 0.5 km/h 85 % 0 mm
20:29 -17.2 °C -18.4 °C 34869 hPa SE 15 km/h 8 km/h 85 % 0 mm
20:34 -17.2 °C -18.6 °C 34865.6 hPa East 11.9 km/h 11.9 km/h 84 % 0 mm
Søllestedvejret
Tilladelse af Weather Underground - 2.75 mb

Script udviklet af  Jim McMurry - jmcmurry@mwt.net Tilpasset til dette template  Wim van der Kuil - Leuven-Template.eu